TimeEST,TemperatureF,Dew PointF,Humidity,Sea Level PressureIn,VisibilityMPH,Wind Direction,Wind SpeedMPH,Gust SpeedMPH,PrecipitationIn,Events,Conditions,WindDirDegrees,DateUTC
12:15 AM,34.0,23.5,66,29.78,10.0,West,5.8,-,N/A,,Unknown,280,2013-02-13 05:15:00
12:35 AM,34.0,23.4,65,29.79,10.0,WNW,3.5,-,N/A,,Unknown,290,2013-02-13 05:35:00
12:55 AM,34.0,23.0,64,29.79,10.0,West,5.8,-,N/A,,Unknown,280,2013-02-13 05:55:00
1:15 AM,33.6,22.8,65,29.78,10.0,West,6.9,-,N/A,,Unknown,270,2013-02-13 06:15:00
1:35 AM,33.3,22.6,65,29.79,10.0,West,5.8,-,N/A,,Unknown,280,2013-02-13 06:35:00
1:55 AM,32.9,22.1,65,29.78,10.0,West,8.1,-,N/A,,Unknown,270,2013-02-13 06:55:00
2:15 AM,32.5,22.1,65,29.77,10.0,West,6.9,-,N/A,,Unknown,270,2013-02-13 07:15:00
2:35 AM,32.0,21.9,66,29.77,10.0,West,8.1,-,N/A,,Unknown,280,2013-02-13 07:35:00
2:55 AM,32.0,21.9,66,29.77,10.0,West,5.8,-,N/A,,Unknown,270,2013-02-13 07:55:00
3:15 AM,32.0,21.7,66,29.77,10.0,West,5.8,-,N/A,,Unknown,270,2013-02-13 08:15:00
3:35 AM,31.5,21.4,66,29.78,10.0,West,6.9,-,N/A,,Unknown,270,2013-02-13 08:35:00
3:55 AM,31.6,21.2,65,29.79,10.0,West,4.6,-,N/A,,Unknown,270,2013-02-13 08:55:00
4:35 AM,30.7,21.0,67,29.79,10.0,WNW,4.6,-,N/A,,Unknown,290,2013-02-13 09:35:00
4:55 AM,30.7,21.0,67,29.80,10.0,West,3.5,-,N/A,,Unknown,280,2013-02-13 09:55:00
5:15 AM,30.7,20.8,67,29.81,10.0,WSW,4.6,-,N/A,,Unknown,250,2013-02-13 10:15:00
5:35 AM,31.1,21.2,67,29.81,10.0,West,4.6,-,N/A,,Unknown,260,2013-02-13 10:35:00
5:55 AM,31.3,21.2,66,29.80,10.0,Calm,Calm,-,N/A,,Unknown,0,2013-02-13 10:55:00
6:15 AM,30.4,21.0,68,29.80,10.0,Calm,Calm,-,N/A,,Unknown,0,2013-02-13 11:15:00
6:35 AM,30.2,21.0,69,29.80,10.0,Calm,Calm,-,N/A,,Unknown,0,2013-02-13 11:35:00
6:55 AM,30.0,21.2,70,29.80,10.0,Calm,Calm,-,N/A,,Unknown,0,2013-02-13 11:55:00
7:15 AM,30.7,21.0,67,29.81,10.0,West,3.5,-,N/A,,Unknown,270,2013-02-13 12:15:00
7:35 AM,30.9,21.2,67,29.81,10.0,WSW,3.5,-,N/A,,Unknown,240,2013-02-13 12:35:00
7:55 AM,31.6,21.0,65,29.82,10.0,West,3.5,-,N/A,,Unknown,260,2013-02-13 12:55:00
8:35 AM,31.6,21.4,66,29.82,10.0,WNW,3.5,-,N/A,,Unknown,290,2013-02-13 13:35:00
8:55 AM,32.0,21.4,65,29.82,10.0,Calm,Calm,-,N/A,,Unknown,0,2013-02-13 13:55:00
9:15 AM,32.0,21.7,66,29.82,10.0,NW,3.5,-,N/A,,Unknown,310,2013-02-13 14:15:00
9:35 AM,32.4,21.7,65,29.82,10.0,WNW,3.5,-,N/A,,Unknown,290,2013-02-13 14:35:00
9:55 AM,32.9,21.6,63,29.81,10.0,WNW,3.5,-,N/A,,Unknown,300,2013-02-13 14:55:00
10:15 AM,33.8,21.6,61,29.81,10.0,NW,3.5,-,N/A,,Unknown,310,2013-02-13 15:15:00
10:35 AM,34.2,20.3,57,29.81,10.0,WNW,6.9,-,N/A,,Unknown,300,2013-02-13 15:35:00
11:15 AM,35.6,20.1,53,29.80,10.0,West,5.8,-,N/A,,Unknown,270,2013-02-13 16:15:00
11:35 AM,36.0,19.8,52,29.79,10.0,West,6.9,-,N/A,,Unknown,280,2013-02-13 16:35:00
11:55 AM,36.0,19.9,52,29.78,10.0,West,5.8,-,N/A,,Unknown,280,2013-02-13 16:55:00
12:15 PM,36.1,19.6,51,29.77,10.0,NW,6.9,-,N/A,,Unknown,320,2013-02-13 17:15:00
12:35 PM,36.3,19.6,51,29.77,10.0,West,8.1,-,N/A,,Unknown,270,2013-02-13 17:35:00
12:55 PM,36.5,19.6,50,29.76,10.0,West,4.6,-,N/A,,Unknown,270,2013-02-13 17:55:00
1:15 PM,36.1,19.9,52,29.77,10.0,WNW,3.5,-,N/A,,Unknown,290,2013-02-13 18:15:00
1:35 PM,36.3,19.2,50,29.76,10.0,Calm,Calm,-,N/A,,Unknown,0,2013-02-13 18:35:00
1:55 PM,36.5,19.2,50,29.76,10.0,NNW,6.9,-,N/A,,Unknown,330,2013-02-13 18:55:00
2:15 PM,36.5,19.2,50,29.76,10.0,Calm,Calm,-,N/A,,Unknown,0,2013-02-13 19:15:00
2:35 PM,36.5,19.8,51,29.75,10.0,Calm,Calm,-,N/A,,Unknown,0,2013-02-13 19:35:00
2:55 PM,36.5,19.9,51,29.75,10.0,NW,3.5,-,N/A,,Unknown,310,2013-02-13 19:55:00
3:15 PM,36.5,19.8,51,29.75,10.0,Calm,Calm,-,N/A,,Unknown,0,2013-02-13 20:15:00
3:35 PM,36.7,17.4,46,29.73,10.0,Calm,Calm,-,N/A,,Unknown,0,2013-02-13 20:35:00
3:55 PM,36.5,17.6,46,29.73,10.0,Calm,Calm,-,N/A,,Unknown,0,2013-02-13 20:55:00
4:15 PM,36.1,19.0,50,29.73,10.0,Calm,Calm,-,N/A,,Unknown,0,2013-02-13 21:15:00
4:35 PM,36.0,18.9,50,29.73,10.0,Calm,Calm,-,N/A,,Unknown,0,2013-02-13 21:35:00
4:55 PM,36.1,18.0,48,29.73,10.0,Calm,Calm,-,N/A,,Unknown,0,2013-02-13 21:55:00
5:15 PM,35.4,19.6,53,29.74,10.0,Calm,Calm,-,N/A,,Unknown,0,2013-02-13 22:15:00
5:35 PM,34.3,21.4,59,29.74,10.0,Calm,Calm,-,N/A,,Unknown,0,2013-02-13 22:35:00
5:55 PM,34.0,20.1,57,29.73,10.0,Calm,Calm,-,N/A,,Unknown,0,2013-02-13 22:55:00
6:15 PM,32.5,23.4,69,29.73,10.0,Calm,Calm,-,N/A,,Unknown,0,2013-02-13 23:15:00
6:35 PM,32.2,23.4,70,29.73,10.0,Calm,Calm,-,N/A,,Unknown,0,2013-02-13 23:35:00
6:55 PM,30.9,24.4,77,29.73,10.0,Calm,Calm,-,N/A,,Unknown,0,2013-02-13 23:55:00
7:15 PM,30.4,23.5,76,29.73,10.0,Calm,Calm,-,N/A,,Unknown,0,2013-02-14 00:15:00
7:35 PM,28.6,23.0,80,29.73,10.0,Calm,Calm,-,N/A,,Unknown,0,2013-02-14 00:35:00
7:55 PM,27.7,23.2,83,29.73,10.0,Calm,Calm,-,N/A,,Unknown,0,2013-02-14 00:55:00
8:15 PM,27.3,22.6,83,29.73,10.0,Calm,Calm,-,N/A,,Unknown,0,2013-02-14 01:15:00
8:35 PM,26.2,22.8,87,29.73,10.0,Calm,Calm,-,N/A,,Unknown,0,2013-02-14 01:35:00
8:55 PM,26.2,22.1,84,29.73,10.0,Calm,Calm,-,N/A,,Unknown,0,2013-02-14 01:55:00
9:15 PM,25.0,21.9,88,29.74,10.0,Calm,Calm,-,N/A,,Unknown,0,2013-02-14 02:15:00
9:35 PM,25.5,22.6,89,29.74,10.0,Calm,Calm,-,N/A,,Unknown,0,2013-02-14 02:35:00
9:55 PM,24.1,21.9,91,29.75,10.0,Calm,Calm,-,N/A,,Unknown,0,2013-02-14 02:55:00
10:15 PM,24.8,22.1,89,29.75,10.0,Calm,Calm,-,N/A,,Unknown,0,2013-02-14 03:15:00
10:35 PM,24.8,22.1,89,29.74,10.0,Calm,Calm,-,N/A,,Unknown,0,2013-02-14 03:35:00
10:55 PM,24.4,21.7,89,29.74,10.0,Calm,Calm,-,N/A,,Unknown,0,2013-02-14 03:55:00
11:15 PM,25.3,22.1,87,29.74,10.0,Calm,Calm,-,N/A,,Unknown,0,2013-02-14 04:15:00
11:35 PM,24.4,21.7,89,29.73,10.0,Calm,Calm,-,N/A,,Unknown,0,2013-02-14 04:35:00
11:55 PM,24.4,21.9,90,29.73,10.0,Calm,Calm,-,N/A,,Unknown,0,2013-02-14 04:55:00